Weather in Ivanhorod

Ukraine / Chernihiv Region     51°01′52″N   32°27′54″E
temp.,
°C
wind,
m/s
gust,
m/s
humid.,
%
clouds,
%
prec.,
mm/h
press.,
hPa
HPBL,
m
8 may, sat
sat800:00+10se3898100 6.3 1008396
03:00+11ssw51097100 8.1 1006459
06:00+10s4898100 2.8 1004510
09:00+10nw3697100 7.8 1004360
12:00+10wnw3596100 1.4 1006381
15:00+6wnw91393100 3.1 1008850
18:00+5wnw71394100 1.9 10111074
21:00+5wnw5128411 2.0 1014490
9 may, sun
sun900:00+4wnw614850 0.0 1015585
03:00+2wnw614890 0.0 1017422
06:00+2wnw512890 0.0 1019334
09:00+7nw69725 0.0 1021816
12:00+10nw710515 0.0 10221762
15:00+12nw79465 0.0 10232337
18:00+11nnw47565 0.0 10241844
21:00+6n22662 0.0 102617
10 may, mon
mon1000:00+5n22655 0.0 102711
03:00+4nw11646 0.0 102810
06:00+4n22682 0.0 102911
09:00+9nne23570 0.0 1030357
12:00+13n34470 0.0 10291271
15:00+14nne45465 0.0 10281603
18:00+14nne46595 0.0 1027966
21:00+9nne49700 0.0 1027143
11 may, tue
tue1100:00+6ne35790 0.0 102775
03:00+5nne410810 0.0 1026183
06:00+6nne5137622 0.0 1025281
09:00+10nne6117098 0.0 1024427
12:00+16ne79645 0.0 1022819
15:00+17ne7106762 0.0 10211148
18:00+13e511853 0.2 1022698
21:00+10ene4119069 0.3 1022294
12 may, wed
wed1200:00+8ene399444 0.0 1022176
03:00+9ene398594 0.0 1020307
06:00+7ene411905 0.0 1019316
09:00+11e71174100 0.0 10181133
12:00+10e6108196 0.3 1017938
15:00+10ese71183100 0.9 10171230
18:00+10e61186100 0.1 10161075
21:00+9e61189100 0.3 1015610